Regional Weather Roundup
Issued by NWS

Home | Current Version | Previous Version | Text Only | Print | Product List | Glossary Off
Versions: 1 2 3 4 5 6 7 8 9 10 11 12 13 14 15 16 17 18 19 20 21 22 23 24 25 26 27 28 29 30 31 32 33 34 35 36 37 38 39 40 41 42 43 44 45 46 47 48 49 50

000
ASUS45 KABQ 262210
RWRNM
WEATHER ROUNDUP FOR NEW MEXICO
NATIONAL WEATHER SERVICE ALBUQUERQUE NM
300 PM MST FRI DEC 26 2014

NOTE: "FAIR" MEANS FEW OR NO CLOUDS BELOW 12,000 FEET AGL WITH NO
       SIGNIFICANT WEATHER OR OBSTRUCTIONS TO VISION.

      THIS PRODUCT IS RELEASED AS TWO VERSIONS.  ONE VERSION NEAR
      THE TOP OF THE HOUR CONTAINING PRELIMINARY DATA FROM ALBUQUERQUE
      AND OTHER STATIONS.  A FINAL VERSION WITH ADDITIONAL DATA IS
      ISSUED ABOUT 10 MINUTES AFTER THE HOUR.

NMZ501-503-504-510>518-262300-
NORTHWEST PLATEAU/NORTHCENTRAL MOUNTAINS

CITY           SKY/WX    TMP DP  RH WIND       PRES   REMARKS
FARMINGTON     PTSUNNY   27  21  78 SW15      29.85R WCI  15
LOS ALAMOS     MOSUNNY   26   8  46 SW8       29.80R WCI  17
SANTA FE       PTSUNNY   26  14  60 SW12      29.83R WCI  16
TAOS           CLOUDY    21  18  86 W16       29.79R VSB 3/4 WCI   7
ANGEL FIRE     SNOW      17  13  84 S9G21     29.75R VSB 1/4 WCI   6

$$
NMZ402-403-502-505>509-262300-
WESTCENTRAL MOUNTAINS/SOUTHWEST MOUNTAINS

CITY           SKY/WX    TMP DP  RH WIND       PRES   REMARKS
GALLUP         SUNNY     24  16  71 SW13      29.89R WCI  12
GRANTS         CLOUDY    29  11  47 W9G23     29.89R WCI  20
SILVER CITY    SUNNY     41   0  17 W25G37    29.90R

$$
NMZ407-409-411-412-262300-
SOUTHERN DESERTS

CITY           SKY/WX    TMP DP  RH WIND       PRES   REMARKS
LORDSBURG      FAIR      45  14  29 NW21G28   29.91S
DEMING         CLOUDY    46  18  32 W20G26    29.89R
LAS CRUCES     CLOUDY    41  29  61 SW7       29.90S
HOLLOMAN AFB   MOSUNNY   44  31  61 SE15      29.86F
ALAMOGORDO     PTSUNNY   43  30  61 S15       29.87S
T OR C         SUNNY     46  -3  13 W13       29.85R

$$
NMZ519>523-262300-
CENTRAL VALLEYS/CENTRAL HIGHLANDS

CITY           SKY/WX    TMP DP  RH WIND       PRES   REMARKS
ALBUQUERQUE    PTSUNNY   36   8  31 W13G23    29.88R WCI  27
DOUBLE EAGLE   PTSUNNY   30   9  40 W18       29.87R WCI  18
MORIARTY ARPT  FAIR      28  15  58 SW15      29.87R WCI  17
CLINES CORNERS CLOUDY    24  12  60 W17       29.81R WCI  11
BELEN          FAIR      37   9  30 W16G26    29.89R WCI  28
SOCORRO        FAIR      42   8  25 W12G21    29.89R

$$
NMZ524>526-539-540-262300-
SOUTHCENTRAL MOUNTAINS

CITY           SKY/WX    TMP DP  RH WIND       PRES   REMARKS
RUIDOSO        MOSUNNY   32  14  47 NW17G25   29.85R WCI  21

$$
NMZ527>531-262300-
NORTHEAST HIGHLANDS/NORTHEAST PLAINS

CITY           SKY/WX    TMP DP  RH WIND       PRES   REMARKS
LAS VEGAS      CLOUDY    24  16  71 VRB7      29.80R WCI  16
RATON          LGT SNOW  20  15  81 NE9       29.83R WCI   9
CLAYTON        CLOUDY    25  18  74 N12       29.89R WCI  14

$$
NMZ532>537-262300-
EASTCENTRAL PLAINS

CITY           SKY/WX    TMP DP  RH WIND       PRES   REMARKS
TUCUMCARI      CLOUDY    31  24  75 E10       29.91R WCI  22
CANNON AFB     MOSUNNY   39  27  62 NE10      29.86R WCI  32
CLOVIS AIRPORT PTSUNNY   37  25  60 NE10      29.86R WCI  30

$$
NMZ028-029-538-262300-
SOUTHEAST PLAINS

CITY           SKY/WX    TMP DP  RH WIND       PRES   REMARKS
ROSWELL        CLOUDY    51  18  27 NW8G18    29.85R
ARTESIA        CLOUDY    45  34  65 SE10      29.89R
CARLSBAD       CLOUDY    49  29  46 W25G32    29.88S
HOBBS          PTSUNNY   48  28  46 W15G23    29.89R


$$


USA.gov is the U.S. government's official web portal to all federal, state and local government web resources and services.